Location: Melara
(45.0500°N, 11.1833°E)
Time: 21:24:39
(UTC+00:00)

USA 308 - Pass Details

Date: 26 May 2022
Orbit: 549 x 558 km, 54.0° (Epoch: 14 June)

Event Time Altitude Azimuth Distance (km) Brightness Sun altitude
Exits shadow 00:40:53 52° 257° (WSW) 699 3.0 -20.8°
Maximum altitude 00:41:49 75° 327° (NNW) 582 2.9 -20.8°
Drops below altitude 10° 00:45:59 10° 53° (NE) 1,833 6.3 -20.5°
Sets 00:48:17 0° 55° (NE) 2,750 7.4 -20.3°
